Regional Weather Roundup
Issued by NWS Midland/Odessa, TX

Current Version | Previous Version | Text Only | Print | Product List | Glossary On
Versions: 1 2 3 4 5 6 7 8 9 10 11 12 13 14 15 16 17 18 19 20 21 22 23 24 25 26 27 28 29 30 31 32 33 34 35 36 37 38 39 40 41 42 43 44 45 46 47 48 49 50
000
ASUS44 KMAF 201310
RWRMAF
MIDLAND AREA WEATHER ROUNDUP
NATIONAL WEATHER SERVICE MIDLAND TX
800 AM CDT THU JUN 20 2019

...IN SOUTHWEST TEXAS AND SOUTHEAST NEW MEXICO...

CITY           SKY/WX    TMP DP  RH WIND       PRES   REMARKS
ALPINE         MOSUNNY   73  43  33 SW8       30.09S
ANDREWS        FAIR      73  33  22 SW5       29.88R
ARTESIA        SUNNY     73  34  23 N5        29.91
BIG SPRING     SUNNY     70  64  80 S7        29.86S
CARLSBAD       SUNNY     79  27  14 E5        29.86R
DRYDEN           N/A     80  62  54 NW12      29.83R
FORT STOCKTON  SUNNY     76  42  29 SW15      29.89R
GUAD PASS      SUNNY     70  20  15 SW13      30.07R
HOBBS          SUNNY     73  25  16 W12       29.88R
LAMESA         NOT AVBL
MARFA          SUNNY     60  49  66 CALM      30.09R
MIDLAND AIRPK  SUNNY     72  44  35 SW7       29.87R
MIDLAND INTL   SUNNY     74  41  30 S8        29.87R
ODESSA         SUNNY     70  41  34 S8        29.88R
PECOS          SUNNY     71  33  25 CALM      29.85R
PRESIDIO       FAIR      77  44  30 N5        29.97R
SEMINOLE       SUNNY     67  37  32 SW3       29.92R
SNYDER         SUNNY     69  67  94 S8        29.81S
WINK           SUNNY     67  34  29 SE6       29.85R
$$
...OTHER STATIONS IN TEXAS...

CITY           SKY/WX    TMP DP  RH WIND       PRES   REMARKS
ABILENE        SUNNY     74  69  85 SE10      29.78S
AMARILLO       SUNNY     68  63  84 S12       29.84R
AUSTIN         CLOUDY    82  76  81 SE8       29.86R
BROWNSVILLE    FAIR      84  81  90 S15       29.82R
CORPUS CHRISTI PTSUNNY   82  79  90 S13       29.82R
DALLAS FTW     MOSUNNY   77  66  68 S9        29.78S
DEL RIO        SUNNY     78  69  73 CALM      29.79R
EL PASO        MOSUNNY   82  21  10 W15       29.97R
HOUSTON INT    PTSUNNY   82  79  90 NW5       29.92R
LUBBOCK        MOSUNNY   70  64  81 SW5       29.84R
SAN ANGELO     SUNNY     74  68  81 SW5       29.81R
SAN ANTONIO    CLOUDY    80  75  84 S10       29.83R
WACO             N/A    N/A N/A N/A MISG      29.82S
WICHITA FALLS  MOSUNNY   70  65  84 S8        29.77R
$$
...OTHER LOCATIONS IN NEW MEXICO...

CITY           SKY/WX    TMP DP  RH WIND       PRES   REMARKS
ALAMOGORDO     SUNNY     66  28  24 CALM      29.99
ALBUQUERQUE    MOSUNNY   63  28  26 SE7       30.05R
CANNON AFB     SUNNY     67  48  50 W8G23     29.92R
CLOVIS         SUNNY     67  56  67 W6        29.90S
HOLLOMAN AFB   SUNNY     68  29  23 E3        30.00
ROSWELL        SUNNY     72  30  21 CALM      29.88R
RUIDOSO        SUNNY     66  23  19 W5        30.17
SANTA FE       SUNNY     56  35  45 CALM      30.09R
TRUTH OR CONSE SUNNY     76  19  11 NW16      30.01R
TUCUMCARI      SUNNY     65  42  43 W3        29.87R
$$



USA.gov is the U.S. government's official web portal to all federal, state and local government web resources and services.